Location: Unspecified
(0.0000°N, 0.0000°E)
Time: 20:01:31
(UTC+00:00)

DNEPR-1 R/B - Pass Details

Date: 27 January 2013
Orbit: 582 x 1340 km, 64.6° (Epoch: 19 January)

Event Time Altitude Azimuth Distance (km) Brightness Sun altitude
Rises 19:03:21 0° 326° (NW) 2,867 7.2 -12.0°
Reaches altitude 10° 19:05:32 10° 319° (NW) 2,020 6.5 -12.5°
Maximum altitude 19:09:51 45° 246° (WSW) 954 5.1 -13.5°
Drops below altitude 10° 19:14:58 10° 174° (S) 2,382 6.7 -14.7°
Sets 19:17:44 0° 168° (SSE) 3,445 7.5 -15.4°
